Location: Arborea
(39.7744°N, 8.5819°E)
Time: 11:57:14
(UTC+00:00)

Cosmos 332 Rocket - Pass Details

Date: 07 June 2022
Orbit: 681 x 703 km, 74.0° (Epoch: 03 July)

Event Time Altitude Azimuth Distance (km) Brightness Sun altitude
Exits shadow 23:13:10 18° 274° (W) 1,641 5.7 -27.3°
Maximum altitude 23:14:42 21° 300° (WNW) 1,515 5.8 -27.4°
Drops below altitude 10° 23:18:20 10° 349° (N) 2,132 7.3 -27.4°
Sets 23:21:11 0° 6° (N) 3,054 8.4 -27.4°
